Time,TemperatureF,DewpointF,PressureIn,WindDirection,WindDirectionDegrees,WindSpeedMPH,WindSpeedGustMPH,Humidity,HourlyPrecipIn,Conditions,Clouds,dailyrainin,SoftwareType,DateUTC
2013-03-18 00:05:00,32.3,-99.9,28.21,NE,45,5.0,-999.0,-999,-99.99,,,-99.99,,2013-03-18 00:05:00,
2013-03-18 00:11:00,32.5,-99.9,28.21,SE,135,8.0,-999.0,-999,-99.99,,,-99.99,,2013-03-18 00:11:00,
2013-03-18 00:18:00,32.7,-99.9,28.21,SE,135,6.0,-999.0,-999,-99.99,,,-99.99,,2013-03-18 00:18:00,
2013-03-18 00:24:00,32.9,-99.9,28.21,SW,225,7.0,-999.0,-999,-99.99,,,-99.99,,2013-03-18 00:24:00,
2013-03-18 00:30:00,33.1,-99.9,28.21,SSE,157,5.0,-999.0,-999,-99.99,,,-99.99,,2013-03-18 00:30:00,
2013-03-18 00:37:00,33.3,-99.9,28.21,ENE,67,6.0,-999.0,-999,-99.99,,,-99.99,,2013-03-18 00:37:00,
2013-03-18 00:43:00,33.6,-99.9,28.21,SSW,202,10.0,-999.0,-999,-99.99,,,-99.99,,2013-03-18 00:43:00,
2013-03-18 00:49:00,33.7,-99.9,28.21,SW,225,9.0,-999.0,-999,-99.99,,,-99.99,,2013-03-18 00:49:00,
2013-03-18 00:55:00,33.9,-99.9,28.22,South,180,8.0,-999.0,-999,-99.99,,,-99.99,,2013-03-18 00:55:00,
2013-03-18 01:03:00,34.1,-99.9,28.22,SSE,157,-999.0,-999.0,-999,-99.99,,,-99.99,,2013-03-18 01:03:00,
2013-03-18 01:09:00,34.4,-99.9,28.22,SE,135,11.0,-999.0,-999,-99.99,,,-99.99,,2013-03-18 01:09:00,
2013-03-18 01:15:00,34.5,-99.9,28.22,SW,225,12.0,-999.0,-999,-99.99,,,-99.99,,2013-03-18 01:15:00,
2013-03-18 01:21:00,34.6,-99.9,28.22,SE,135,11.0,-999.0,-999,-99.99,,,-99.99,,2013-03-18 01:21:00,
2013-03-18 01:28:00,34.6,-99.9,28.22,SW,225,7.0,-999.0,-999,-99.99,,,-99.99,,2013-03-18 01:28:00,
2013-03-18 01:34:00,34.6,-99.9,28.22,SW,225,10.0,-999.0,-999,-99.99,,,-99.99,,2013-03-18 01:34:00,
2013-03-18 01:40:00,34.6,-99.9,28.23,South,180,12.0,-999.0,-999,-99.99,,,-99.99,,2013-03-18 01:40:00,
2013-03-18 01:49:00,34.6,-99.9,28.23,SSW,202,11.0,-999.0,-999,-99.99,,,-99.99,,2013-03-18 01:49:00,
2013-03-18 01:56:00,34.5,-99.9,28.23,SE,135,-999.0,-999.0,-999,-99.99,,,-99.99,,2013-03-18 01:56:00,
2013-03-18 02:02:00,34.5,-99.9,28.23,SSE,157,9.0,-999.0,-999,-99.99,,,-99.99,,2013-03-18 02:02:00,
2013-03-18 02:08:00,34.5,-99.9,28.23,South,180,7.0,-999.0,-999,-99.99,,,-99.99,,2013-03-18 02:08:00,
2013-03-18 02:14:00,34.4,-99.9,28.23,SE,135,6.0,-999.0,-999,-99.99,,,-99.99,,2013-03-18 02:14:00,
2013-03-18 02:22:00,34.4,-99.9,28.23,SSW,202,-999.0,-999.0,-999,-99.99,,,-99.99,,2013-03-18 02:22:00,
2013-03-18 02:28:00,34.4,-99.9,28.23,East,90,8.0,-999.0,-999,-99.99,,,-99.99,,2013-03-18 02:28:00,
2013-03-18 02:34:00,34.4,-99.9,28.23,SW,225,5.0,-999.0,-999,-99.99,,,-99.99,,2013-03-18 02:34:00,
2013-03-18 02:40:00,34.4,-99.9,28.23,East,90,5.0,-999.0,-999,-99.99,,,-99.99,,2013-03-18 02:40:00,
2013-03-18 02:47:00,34.4,-99.9,28.23,ESE,112,6.0,-999.0,-999,-99.99,,,-99.99,,2013-03-18 02:47:00,
2013-03-18 02:52:00,34.7,-99.9,28.23,SW,225,-999.0,-999.0,-999,-99.99,,,-99.99,,2013-03-18 02:52:00,
2013-03-18 02:58:00,34.8,-99.9,28.23,SW,225,5.0,-999.0,-999,-99.99,,,-99.99,,2013-03-18 02:58:00,
2013-03-18 03:04:00,34.8,-99.9,28.24,SW,225,5.0,-999.0,-999,-99.99,,,-99.99,,2013-03-18 03:04:00,
2013-03-18 03:10:00,34.9,-99.9,28.24,SSE,157,10.0,-999.0,-999,-99.99,,,-99.99,,2013-03-18 03:10:00,
2013-03-18 03:17:00,34.9,-99.9,28.24,SSW,202,11.0,-999.0,-999,-99.99,,,-99.99,,2013-03-18 03:17:00,
2013-03-18 03:23:00,34.9,-99.9,28.24,SW,225,10.0,-999.0,-999,-99.99,,,-99.99,,2013-03-18 03:23:00,
2013-03-18 03:29:00,34.9,-99.9,28.24,SSW,202,9.0,-999.0,-999,-99.99,,,-99.99,,2013-03-18 03:29:00,
2013-03-18 03:36:00,34.9,-99.9,28.24,WSW,247,13.0,-999.0,-999,-99.99,,,-99.99,,2013-03-18 03:36:00,
2013-03-18 03:42:00,34.7,-99.9,28.24,SW,225,6.0,-999.0,-999,-99.99,,,-99.99,,2013-03-18 03:42:00,
2013-03-18 03:48:00,34.7,-99.9,28.24,South,180,9.0,-999.0,-999,-99.99,,,-99.99,,2013-03-18 03:48:00,
2013-03-18 03:54:00,34.8,-99.9,28.24,WSW,247,5.0,-999.0,-999,-99.99,,,-99.99,,2013-03-18 03:54:00,
2013-03-18 04:01:00,34.7,-99.9,28.24,SW,225,17.0,-999.0,-999,-99.99,,,-99.99,,2013-03-18 04:01:00,
2013-03-18 04:05:00,34.8,-99.9,28.24,SW,225,9.0,-999.0,-999,-99.99,,,-99.99,,2013-03-18 04:05:00,
2013-03-18 04:10:00,34.8,-99.9,28.24,South,180,15.0,-999.0,-999,-99.99,,,-99.99,,2013-03-18 04:10:00,
2013-03-18 04:16:00,34.9,-99.9,28.25,SE,135,15.0,-999.0,-999,-99.99,,,-99.99,,2013-03-18 04:16:00,
2013-03-18 04:22:00,34.9,-99.9,28.25,SSW,202,13.0,-999.0,-999,-99.99,,,-99.99,,2013-03-18 04:22:00,
2013-03-18 04:29:00,35.0,-99.9,28.25,SSW,202,15.0,-999.0,-999,-99.99,,,-99.99,,2013-03-18 04:29:00,
2013-03-18 04:31:00,34.9,-99.9,28.25,SSE,157,14.0,-999.0,-999,-99.99,,,-99.99,,2013-03-18 04:31:00,
2013-03-18 04:36:00,34.9,-99.9,28.25,SW,225,13.0,-999.0,-999,-99.99,,,-99.99,,2013-03-18 04:36:00,
2013-03-18 04:42:00,34.8,-99.9,28.25,South,180,13.0,-999.0,-999,-99.99,,,-99.99,,2013-03-18 04:42:00,
2013-03-18 04:48:00,34.8,-99.9,28.26,West,270,13.0,-999.0,-999,-99.99,,,-99.99,,2013-03-18 04:48:00,
2013-03-18 04:55:00,34.7,-99.9,28.26,South,180,18.0,-999.0,-999,-99.99,,,-99.99,,2013-03-18 04:55:00,
2013-03-18 05:03:00,34.7,-99.9,28.26,SSW,202,17.0,-999.0,-999,-99.99,,,-99.99,,2013-03-18 05:03:00,
2013-03-18 05:09:00,34.6,-99.9,28.27,SSW,202,18.0,-999.0,-999,-99.99,,,-99.99,,2013-03-18 05:09:00,
2013-03-18 05:15:00,34.5,-99.9,28.27,West,270,16.0,-999.0,-999,-99.99,,,-99.99,,2013-03-18 05:15:00,
2013-03-18 05:22:00,34.4,-99.9,28.27,SSW,202,17.0,-999.0,-999,-99.99,,,-99.99,,2013-03-18 05:22:00,
2013-03-18 05:28:00,34.1,-99.9,28.27,SW,225,13.0,-999.0,-999,-99.99,,,-99.99,,2013-03-18 05:28:00,
2013-03-18 05:34:00,33.9,-99.9,28.28,SSW,202,15.0,-999.0,-999,-99.99,,,-99.99,,2013-03-18 05:34:00,
2013-03-18 05:40:00,33.6,-99.9,28.28,WSW,247,16.0,-999.0,-999,-99.99,,,-99.99,,2013-03-18 05:40:00,
2013-03-18 05:47:00,33.5,-99.9,28.28,SSE,157,9.0,-999.0,-999,-99.99,,,-99.99,,2013-03-18 05:47:00,
2013-03-18 05:53:00,33.5,-99.9,28.28,ESE,112,7.0,-999.0,-999,-99.99,,,-99.99,,2013-03-18 05:53:00,
2013-03-18 05:59:00,33.5,-99.9,28.28,West,270,11.0,-999.0,-999,-99.99,,,-99.99,,2013-03-18 05:59:00,
2013-03-18 06:05:00,33.5,-99.9,28.29,South,180,10.0,-999.0,-999,-99.99,,,-99.99,,2013-03-18 06:05:00,
2013-03-18 06:12:00,33.6,-99.9,28.28,SW,225,14.0,-999.0,-999,-99.99,,,-99.99,,2013-03-18 06:12:00,
2013-03-18 06:17:00,33.7,-99.9,28.29,NW,315,9.0,-999.0,-999,-99.99,,,-99.99,,2013-03-18 06:17:00,
2013-03-18 06:23:00,33.9,-99.9,28.29,SSW,202,9.0,-999.0,-999,-99.99,,,-99.99,,2013-03-18 06:23:00,
2013-03-18 06:29:00,34.0,-99.9,28.29,SW,225,13.0,-999.0,-999,-99.99,,,-99.99,,2013-03-18 06:29:00,
2013-03-18 06:36:00,34.0,-99.9,28.30,SSW,202,14.0,-999.0,-999,-99.99,,,-99.99,,2013-03-18 06:36:00,
2013-03-18 06:42:00,34.0,-99.9,28.30,WSW,247,19.0,-999.0,-999,-99.99,,,-99.99,,2013-03-18 06:42:00,
2013-03-18 06:49:00,34.0,-99.9,28.30,West,270,16.0,-999.0,-999,-99.99,,,-99.99,,2013-03-18 06:49:00,
2013-03-18 06:55:00,34.0,-99.9,28.30,SW,225,18.0,-999.0,-999,-99.99,,,-99.99,,2013-03-18 06:55:00,
2013-03-18 07:01:00,34.0,-99.9,28.30,WSW,247,15.0,-999.0,-999,-99.99,,,-99.99,,2013-03-18 07:01:00,
2013-03-18 07:08:00,34.0,-99.9,28.31,South,180,14.0,-999.0,-999,-99.99,,,-99.99,,2013-03-18 07:08:00,
2013-03-18 07:14:00,34.0,-99.9,28.31,SSE,157,15.0,-999.0,-999,-99.99,,,-99.99,,2013-03-18 07:14:00,
2013-03-18 07:20:00,34.0,-99.9,28.31,West,270,19.0,-999.0,-999,-99.99,,,-99.99,,2013-03-18 07:20:00,
2013-03-18 07:26:00,33.9,-99.9,28.31,ESE,112,20.0,-999.0,-999,-99.99,,,-99.99,,2013-03-18 07:26:00,
2013-03-18 07:35:00,34.0,-99.9,28.31,South,180,15.0,-999.0,-999,-99.99,,,-99.99,,2013-03-18 07:35:00,
2013-03-18 07:44:00,33.9,-99.9,28.31,SW,225,-999.0,-999.0,-999,-99.99,,,-99.99,,2013-03-18 07:44:00,
2013-03-18 07:49:00,33.9,-99.9,28.32,South,180,-999.0,-999.0,-999,-99.99,,,-99.99,,2013-03-18 07:49:00,
2013-03-18 07:55:00,33.9,-99.9,28.32,South,180,15.0,-999.0,-999,-99.99,,,-99.99,,2013-03-18 07:55:00,
2013-03-18 08:02:00,33.9,-99.9,28.32,ESE,112,15.0,-999.0,-999,-99.99,,,-99.99,,2013-03-18 08:02:00,
2013-03-18 08:08:00,33.9,-99.9,28.32,South,180,15.0,-999.0,-999,-99.99,,,-99.99,,2013-03-18 08:08:00,
2013-03-18 08:14:00,34.0,-99.9,28.32,West,270,13.0,-999.0,-999,-99.99,,,-99.99,,2013-03-18 08:14:00,
2013-03-18 08:21:00,34.2,-99.9,28.32,SSE,157,10.0,-999.0,-999,-99.99,,,-99.99,,2013-03-18 08:21:00,
2013-03-18 08:27:00,34.1,-99.9,28.32,SSW,202,10.0,-999.0,-999,-99.99,,,-99.99,,2013-03-18 08:27:00,
2013-03-18 08:34:00,33.9,-99.9,28.33,West,270,10.0,-999.0,-999,-99.99,,,-99.99,,2013-03-18 08:34:00,
2013-03-18 08:40:00,33.8,-99.9,28.33,WSW,247,11.0,-999.0,-999,-99.99,,,-99.99,,2013-03-18 08:40:00,
2013-03-18 08:46:00,34.2,-99.9,28.33,SSE,157,11.0,-999.0,-999,-99.99,,,-99.99,,2013-03-18 08:46:00,
2013-03-18 08:53:00,33.9,-99.9,28.34,South,180,14.0,-999.0,-999,-99.99,,,-99.99,,2013-03-18 08:53:00,
2013-03-18 08:59:00,33.7,-99.9,28.34,South,180,14.0,-999.0,-999,-99.99,,,-99.99,,2013-03-18 08:59:00,
2013-03-18 09:05:00,33.5,-99.9,28.34,South,180,9.0,-999.0,-999,-99.99,,,-99.99,,2013-03-18 09:05:00,
2013-03-18 09:11:00,33.3,-99.9,28.34,South,180,11.0,-999.0,-999,-99.99,,,-99.99,,2013-03-18 09:11:00,
2013-03-18 09:18:00,33.1,-99.9,28.34,SSE,157,8.0,-999.0,-999,-99.99,,,-99.99,,2013-03-18 09:18:00,
2013-03-18 09:24:00,32.9,-99.9,28.34,South,180,13.0,-999.0,-999,-99.99,,,-99.99,,2013-03-18 09:24:00,
2013-03-18 09:30:00,32.8,-99.9,28.34,NNE,22,11.0,-999.0,-999,-99.99,,,-99.99,,2013-03-18 09:30:00,
2013-03-18 09:39:00,32.8,-99.9,28.35,WSW,247,11.0,-999.0,-999,-99.99,,,-99.99,,2013-03-18 09:39:00,
2013-03-18 09:45:00,32.8,-99.9,28.35,SSE,157,10.0,-999.0,-999,-99.99,,,-99.99,,2013-03-18 09:45:00,
2013-03-18 09:51:00,32.8,-99.9,28.35,ENE,67,9.0,-999.0,-999,-99.99,,,-99.99,,2013-03-18 09:51:00,
2013-03-18 09:57:00,32.8,-99.9,28.35,ESE,112,10.0,-999.0,-999,-99.99,,,-99.99,,2013-03-18 09:57:00,
2013-03-18 10:04:00,32.9,-99.9,28.35,SW,225,8.0,-999.0,-999,-99.99,,,-99.99,,2013-03-18 10:04:00,
2013-03-18 10:09:00,32.8,-99.9,28.36,ESE,112,8.0,-999.0,-999,-99.99,,,-99.99,,2013-03-18 10:09:00,
2013-03-18 10:16:00,32.8,-99.9,28.36,SSW,202,-999.0,-999.0,-999,-99.99,,,-99.99,,2013-03-18 10:16:00,
2013-03-18 10:22:00,32.7,-99.9,28.36,SE,135,8.0,-999.0,-999,-99.99,,,-99.99,,2013-03-18 10:22:00,
2013-03-18 10:29:00,32.7,-99.9,28.36,West,270,6.0,-999.0,-999,-99.99,,,-99.99,,2013-03-18 10:29:00,
2013-03-18 10:35:00,32.6,-99.9,28.36,SSW,202,12.0,-999.0,-999,-99.99,,,-99.99,,2013-03-18 10:35:00,
2013-03-18 10:41:00,32.6,-99.9,28.36,SW,225,8.0,-999.0,-999,-99.99,,,-99.99,,2013-03-18 10:41:00,
2013-03-18 10:48:00,32.6,-99.9,28.36,SSW,202,10.0,-999.0,-999,-99.99,,,-99.99,,2013-03-18 10:48:00,
2013-03-18 10:54:00,32.5,-99.9,28.36,South,180,5.0,-999.0,-999,-99.99,,,-99.99,,2013-03-18 10:54:00,
2013-03-18 11:00:00,32.5,-99.9,28.37,SE,135,9.0,-999.0,-999,-99.99,,,-99.99,,2013-03-18 11:00:00,
2013-03-18 11:08:00,32.3,-99.9,28.37,SE,135,8.0,-999.0,-999,-99.99,,,-99.99,,2013-03-18 11:08:00,
2013-03-18 11:15:00,32.3,-99.9,28.37,SSE,157,10.0,-999.0,-999,-99.99,,,-99.99,,2013-03-18 11:15:00,
2013-03-18 11:21:00,32.2,-99.9,28.37,East,90,10.0,-999.0,-999,-99.99,,,-99.99,,2013-03-18 11:21:00,
2013-03-18 11:27:00,32.2,-99.9,28.37,ESE,112,10.0,-999.0,-999,-99.99,,,-99.99,,2013-03-18 11:27:00,
2013-03-18 11:33:00,32.2,-99.9,28.37,WSW,247,12.0,-999.0,-999,-99.99,,,-99.99,,2013-03-18 11:33:00,
2013-03-18 11:40:00,32.2,-99.9,28.38,South,180,9.0,-999.0,-999,-99.99,,,-99.99,,2013-03-18 11:40:00,
2013-03-18 11:46:00,32.3,-99.9,28.38,SSE,157,3.0,-999.0,-999,-99.99,,,-99.99,,2013-03-18 11:46:00,
2013-03-18 11:52:00,32.3,-99.9,28.38,East,90,6.0,-999.0,-999,-99.99,,,-99.99,,2013-03-18 11:52:00,
2013-03-18 11:58:00,32.1,-99.9,28.38,SE,135,8.0,-999.0,-999,-99.99,,,-99.99,,2013-03-18 11:58:00,
2013-03-18 12:05:00,31.9,-99.9,28.38,ESE,112,9.0,-999.0,-999,-99.99,,,-99.99,,2013-03-18 12:05:00,
2013-03-18 12:13:00,31.9,-99.9,28.38,ESE,112,11.0,-999.0,-999,-99.99,,,-99.99,,2013-03-18 12:13:00,
2013-03-18 12:22:00,31.8,-99.9,28.38,ENE,67,10.0,-999.0,-999,-99.99,,,-99.99,,2013-03-18 12:22:00,
2013-03-18 12:28:00,31.8,-99.9,28.38,NNE,22,10.0,-999.0,-999,-99.99,,,-99.99,,2013-03-18 12:28:00,
2013-03-18 12:35:00,31.8,-99.9,28.38,SE,135,8.0,-999.0,-999,-99.99,,,-99.99,,2013-03-18 12:35:00,
2013-03-18 12:41:00,31.8,-99.9,28.39,NW,315,9.0,-999.0,-999,-99.99,,,-99.99,,2013-03-18 12:41:00,
2013-03-18 12:47:00,31.8,-99.9,28.39,South,180,9.0,-999.0,-999,-99.99,,,-99.99,,2013-03-18 12:47:00,
2013-03-18 12:54:00,31.8,-99.9,28.39,ESE,112,14.0,-999.0,-999,-99.99,,,-99.99,,2013-03-18 12:54:00,
2013-03-18 13:00:00,31.8,-99.9,28.39,ENE,67,8.0,-999.0,-999,-99.99,,,-99.99,,2013-03-18 13:00:00,
2013-03-18 13:06:00,31.8,-99.9,28.39,ESE,112,9.0,-999.0,-999,-99.99,,,-99.99,,2013-03-18 13:06:00,
2013-03-18 13:12:00,31.8,-99.9,28.39,ESE,112,11.0,-999.0,-999,-99.99,,,-99.99,,2013-03-18 13:12:00,
2013-03-18 13:19:00,31.8,-99.9,28.39,South,180,10.0,-999.0,-999,-99.99,,,-99.99,,2013-03-18 13:19:00,
2013-03-18 13:25:00,31.8,-99.9,28.39,ESE,112,10.0,-999.0,-999,-99.99,,,-99.99,,2013-03-18 13:25:00,
2013-03-18 13:35:00,31.9,-99.9,28.39,SSE,157,-999.0,-999.0,-999,-99.99,,,-99.99,,2013-03-18 13:35:00,
2013-03-18 13:43:00,31.9,-99.9,28.39,SSE,157,7.0,-999.0,-999,-99.99,,,-99.99,,2013-03-18 13:43:00,
2013-03-18 13:49:00,32.1,-99.9,28.40,East,90,11.0,-999.0,-999,-99.99,,,-99.99,,2013-03-18 13:49:00,
2013-03-18 13:56:00,32.0,-99.9,28.39,SSE,157,11.0,-999.0,-999,-99.99,,,-99.99,,2013-03-18 13:56:00,
2013-03-18 14:02:00,31.9,-99.9,28.39,ENE,67,8.0,-999.0,-999,-99.99,,,-99.99,,2013-03-18 14:02:00,
2013-03-18 14:08:00,31.8,-99.9,28.39,SE,135,11.0,-999.0,-999,-99.99,,,-99.99,,2013-03-18 14:08:00,
2013-03-18 14:14:00,31.8,-99.9,28.40,WSW,247,10.0,-999.0,-999,-99.99,,,-99.99,,2013-03-18 14:14:00,
2013-03-18 14:21:00,31.8,-99.9,28.40,ENE,67,13.0,-999.0,-999,-99.99,,,-99.99,,2013-03-18 14:21:00,
2013-03-18 14:27:00,31.7,-99.9,28.39,East,90,12.0,-999.0,-999,-99.99,,,-99.99,,2013-03-18 14:27:00,
2013-03-18 14:33:00,31.7,-99.9,28.40,ESE,112,12.0,-999.0,-999,-99.99,,,-99.99,,2013-03-18 14:33:00,
2013-03-18 14:39:00,31.7,-99.9,28.40,SSE,157,14.0,-999.0,-999,-99.99,,,-99.99,,2013-03-18 14:39:00,
2013-03-18 14:46:00,31.8,-99.9,28.40,ESE,112,13.0,-999.0,-999,-99.99,,,-99.99,,2013-03-18 14:46:00,
2013-03-18 14:52:00,31.7,-99.9,28.40,SE,135,11.0,-999.0,-999,-99.99,,,-99.99,,2013-03-18 14:52:00,
2013-03-18 14:58:00,31.5,-99.9,28.40,SE,135,15.0,-999.0,-999,-99.99,,,-99.99,,2013-03-18 14:58:00,
2013-03-18 15:04:00,31.7,-99.9,28.40,East,90,14.0,-999.0,-999,-99.99,,,-99.99,,2013-03-18 15:04:00,
2013-03-18 15:11:00,31.5,-99.9,28.40,SE,135,18.0,-999.0,-999,-99.99,,,-99.99,,2013-03-18 15:11:00,
2013-03-18 15:17:00,31.5,-99.9,28.40,NNE,22,16.0,-999.0,-999,-99.99,,,-99.99,,2013-03-18 15:17:00,
2013-03-18 15:23:00,31.5,-99.9,28.40,SW,225,9.0,-999.0,-999,-99.99,,,-99.99,,2013-03-18 15:23:00,
2013-03-18 15:29:00,31.4,-99.9,28.40,ESE,112,14.0,-999.0,-999,-99.99,,,-99.99,,2013-03-18 15:29:00,
2013-03-18 15:36:00,31.2,-99.9,28.40,East,90,14.0,-999.0,-999,-99.99,,,-99.99,,2013-03-18 15:36:00,
2013-03-18 15:41:00,31.3,-99.9,28.41,ESE,112,-999.0,-999.0,-999,-99.99,,,-99.99,,2013-03-18 15:41:00,
2013-03-18 15:47:00,31.5,-99.9,28.41,SE,135,6.0,-999.0,-999,-99.99,,,-99.99,,2013-03-18 15:47:00,
2013-03-18 15:53:00,31.4,-99.9,28.40,SSE,157,12.0,-999.0,-999,-99.99,,,-99.99,,2013-03-18 15:53:00,
2013-03-18 15:59:00,31.1,-99.9,28.40,SE,135,7.0,-999.0,-999,-99.99,,,-99.99,,2013-03-18 15:59:00,
2013-03-18 16:06:00,31.0,-99.9,28.40,East,90,9.0,-999.0,-999,-99.99,,,-99.99,,2013-03-18 16:06:00,
2013-03-18 16:12:00,30.6,-99.9,28.41,ESE,112,11.0,-999.0,-999,-99.99,,,-99.99,,2013-03-18 16:12:00,
2013-03-18 16:18:00,30.6,-99.9,28.41,ESE,112,-999.0,-999.0,-999,-99.99,,,-99.99,,2013-03-18 16:18:00,
2013-03-18 16:23:00,30.5,-99.9,28.41,East,90,10.0,-999.0,-999,-99.99,,,-99.99,,2013-03-18 16:23:00,
2013-03-18 16:30:00,30.6,-99.9,28.41,South,180,12.0,-999.0,-999,-99.99,,,-99.99,,2013-03-18 16:30:00,
2013-03-18 16:38:00,30.8,-99.9,28.41,SE,135,0.0,-999.0,-999,-99.99,,,-99.99,,2013-03-18 16:38:00,
2013-03-18 16:45:00,31.0,-99.9,28.41,NE,45,-999.0,-999.0,-999,-99.99,,,-99.99,,2013-03-18 16:45:00,
2013-03-18 16:52:00,30.8,-99.9,28.41,East,90,14.0,-999.0,-999,-99.99,,,-99.99,,2013-03-18 16:52:00,
2013-03-18 16:58:00,30.9,-99.9,28.41,East,90,16.0,-999.0,-999,-99.99,,,-99.99,,2013-03-18 16:58:00,
2013-03-18 17:04:00,30.9,-99.9,28.41,SE,135,11.0,-999.0,-999,-99.99,,,-99.99,,2013-03-18 17:04:00,
2013-03-18 17:10:00,30.5,-99.9,28.42,ESE,112,12.0,-999.0,-999,-99.99,,,-99.99,,2013-03-18 17:10:00,
2013-03-18 17:17:00,30.4,-99.9,28.42,ESE,112,10.0,-999.0,-999,-99.99,,,-99.99,,2013-03-18 17:17:00,
2013-03-18 17:22:00,30.3,-99.9,28.42,ESE,112,9.0,-999.0,-999,-99.99,,,-99.99,,2013-03-18 17:22:00,
2013-03-18 17:28:00,30.1,-99.9,28.42,NNE,22,10.0,-999.0,-999,-99.99,,,-99.99,,2013-03-18 17:28:00,
2013-03-18 17:34:00,30.0,-99.9,28.42,ESE,112,13.0,-999.0,-999,-99.99,,,-99.99,,2013-03-18 17:34:00,
2013-03-18 17:40:00,30.0,-99.9,28.42,SSE,157,12.0,-999.0,-999,-99.99,,,-99.99,,2013-03-18 17:40:00,
2013-03-18 17:47:00,29.9,-99.9,28.42,ESE,112,9.0,-999.0,-999,-99.99,,,-99.99,,2013-03-18 17:47:00,
2013-03-18 17:53:00,29.9,-99.9,28.42,East,90,10.0,-999.0,-999,-99.99,,,-99.99,,2013-03-18 17:53:00,
2013-03-18 17:59:00,29.8,-99.9,28.42,ENE,67,14.0,-999.0,-999,-99.99,,,-99.99,,2013-03-18 17:59:00,
2013-03-18 18:06:00,29.6,-99.9,28.42,South,180,13.0,-999.0,-999,-99.99,,,-99.99,,2013-03-18 18:06:00,
2013-03-18 18:12:00,29.6,-99.9,28.42,South,180,14.0,-999.0,-999,-99.99,,,-99.99,,2013-03-18 18:12:00,
2013-03-18 18:18:00,29.4,-99.9,28.42,SE,135,9.0,-999.0,-999,-99.99,,,-99.99,,2013-03-18 18:18:00,
2013-03-18 18:24:00,29.3,-99.9,28.42,ESE,112,12.0,-999.0,-999,-99.99,,,-99.99,,2013-03-18 18:24:00,
2013-03-18 18:31:00,29.2,-99.9,28.43,ESE,112,5.0,-999.0,-999,-99.99,,,-99.99,,2013-03-18 18:31:00,
2013-03-18 18:37:00,29.2,-99.9,28.43,ESE,112,12.0,-999.0,-999,-99.99,,,-99.99,,2013-03-18 18:37:00,
2013-03-18 18:43:00,29.3,-99.9,28.43,ENE,67,11.0,-999.0,-999,-99.99,,,-99.99,,2013-03-18 18:43:00,
2013-03-18 18:49:00,29.3,-99.9,28.43,ENE,67,9.0,-999.0,-999,-99.99,,,-99.99,,2013-03-18 18:49:00,
2013-03-18 18:56:00,29.4,-99.9,28.43,South,180,11.0,-999.0,-999,-99.99,,,-99.99,,2013-03-18 18:56:00,
2013-03-18 19:03:00,29.4,-99.9,28.43,South,180,-999.0,-999.0,-999,-99.99,,,-99.99,,2013-03-18 19:03:00,
2013-03-18 19:08:00,29.4,-99.9,28.43,ENE,67,-999.0,-999.0,-999,-99.99,,,-99.99,,2013-03-18 19:08:00,
2013-03-18 19:14:00,29.4,-99.9,28.43,East,90,10.0,-999.0,-999,-99.99,,,-99.99,,2013-03-18 19:14:00,
2013-03-18 19:21:00,29.4,-99.9,28.44,SE,135,12.0,-999.0,-999,-99.99,,,-99.99,,2013-03-18 19:21:00,
2013-03-18 19:28:00,29.3,-99.9,28.44,ESE,112,10.0,-999.0,-999,-99.99,,,-99.99,,2013-03-18 19:28:00,
2013-03-18 19:34:00,29.3,-99.9,28.43,East,90,13.0,-999.0,-999,-99.99,,,-99.99,,2013-03-18 19:34:00,
2013-03-18 19:40:00,29.3,-99.9,28.44,SSE,157,8.0,-999.0,-999,-99.99,,,-99.99,,2013-03-18 19:40:00,
2013-03-18 19:47:00,29.4,-99.9,28.44,SE,135,18.0,-999.0,-999,-99.99,,,-99.99,,2013-03-18 19:47:00,
2013-03-18 19:53:00,29.3,-99.9,28.44,East,90,11.0,-999.0,-999,-99.99,,,-99.99,,2013-03-18 19:53:00,
2013-03-18 19:59:00,29.3,-99.9,28.44,ESE,112,6.0,-999.0,-999,-99.99,,,-99.99,,2013-03-18 19:59:00,
2013-03-18 20:08:00,29.4,-99.9,28.44,SE,135,13.0,-999.0,-999,-99.99,,,-99.99,,2013-03-18 20:08:00,
2013-03-18 20:14:00,29.4,-99.9,28.44,NNE,22,9.0,-999.0,-999,-99.99,,,-99.99,,2013-03-18 20:14:00,
2013-03-18 20:20:00,29.4,-99.9,28.44,ENE,67,10.0,-999.0,-999,-99.99,,,-99.99,,2013-03-18 20:20:00,
2013-03-18 20:27:00,29.5,-99.9,28.44,ENE,67,10.0,-999.0,-999,-99.99,,,-99.99,,2013-03-18 20:27:00,
2013-03-18 20:33:00,29.5,-99.9,28.44,East,90,11.0,-999.0,-999,-99.99,,,-99.99,,2013-03-18 20:33:00,
2013-03-18 20:40:00,29.3,-99.9,28.44,SE,135,12.0,-999.0,-999,-99.99,,,-99.99,,2013-03-18 20:40:00,
2013-03-18 20:46:00,29.2,-99.9,28.44,SE,135,11.0,-999.0,-999,-99.99,,,-99.99,,2013-03-18 20:46:00,
2013-03-18 20:52:00,29.2,-99.9,28.44,ESE,112,15.0,-999.0,-999,-99.99,,,-99.99,,2013-03-18 20:52:00,
2013-03-18 20:59:00,29.1,-99.9,28.44,ENE,67,13.0,-999.0,-999,-99.99,,,-99.99,,2013-03-18 20:59:00,
2013-03-18 21:05:00,29.0,-99.9,28.43,NE,45,11.0,-999.0,-999,-99.99,,,-99.99,,2013-03-18 21:05:00,
2013-03-18 21:11:00,29.0,-99.9,28.43,ENE,67,10.0,-999.0,-999,-99.99,,,-99.99,,2013-03-18 21:11:00,
2013-03-18 21:17:00,29.1,-99.9,28.43,ESE,112,14.0,-999.0,-999,-99.99,,,-99.99,,2013-03-18 21:17:00,
2013-03-18 21:24:00,29.3,-99.9,28.43,ENE,67,14.0,-999.0,-999,-99.99,,,-99.99,,2013-03-18 21:24:00,
2013-03-18 21:30:00,29.3,-99.9,28.43,North,0,12.0,-999.0,-999,-99.99,,,-99.99,,2013-03-18 21:30:00,
2013-03-18 21:38:00,29.5,-99.9,28.43,SSE,157,11.0,-999.0,-999,-99.99,,,-99.99,,2013-03-18 21:38:00,
2013-03-18 21:44:00,29.6,-99.9,28.43,ESE,112,11.0,-999.0,-999,-99.99,,,-99.99,,2013-03-18 21:44:00,
2013-03-18 21:51:00,29.8,-99.9,28.43,ENE,67,13.0,-999.0,-999,-99.99,,,-99.99,,2013-03-18 21:51:00,
2013-03-18 21:57:00,29.8,-99.9,28.43,East,90,10.0,-999.0,-999,-99.99,,,-99.99,,2013-03-18 21:57:00,
2013-03-18 22:03:00,29.8,-99.9,28.43,SE,135,16.0,-999.0,-999,-99.99,,,-99.99,,2013-03-18 22:03:00,
2013-03-18 22:10:00,29.6,-99.9,28.43,SW,225,10.0,-999.0,-999,-99.99,,,-99.99,,2013-03-18 22:10:00,
2013-03-18 22:18:00,29.6,-99.9,28.43,ENE,67,13.0,-999.0,-999,-99.99,,,-99.99,,2013-03-18 22:18:00,
2013-03-18 22:24:00,29.6,-99.9,28.43,ENE,67,19.0,-999.0,-999,-99.99,,,-99.99,,2013-03-18 22:24:00,
2013-03-18 22:30:00,29.6,-99.9,28.43,NNE,22,-999.0,-999.0,-999,-99.99,,,-99.99,,2013-03-18 22:30:00,
2013-03-18 22:36:00,29.6,-99.9,28.43,ENE,67,10.0,-999.0,-999,-99.99,,,-99.99,,2013-03-18 22:36:00,
2013-03-18 22:42:00,29.8,-99.9,28.43,East,90,16.0,-999.0,-999,-99.99,,,-99.99,,2013-03-18 22:42:00,
2013-03-18 22:48:00,29.8,-99.9,28.43,SE,135,16.0,-999.0,-999,-99.99,,,-99.99,,2013-03-18 22:48:00,
2013-03-18 22:55:00,29.6,-99.9,28.43,SE,135,11.0,-999.0,-999,-99.99,,,-99.99,,2013-03-18 22:55:00,
2013-03-18 23:03:00,29.6,-99.9,28.43,SSE,157,13.0,-999.0,-999,-99.99,,,-99.99,,2013-03-18 23:03:00,
2013-03-18 23:09:00,29.5,-99.9,28.43,SE,135,13.0,-999.0,-999,-99.99,,,-99.99,,2013-03-18 23:09:00,
2013-03-18 23:15:00,29.5,-99.9,28.43,ENE,67,17.0,-999.0,-999,-99.99,,,-99.99,,2013-03-18 23:15:00,
2013-03-18 23:22:00,29.5,-99.9,28.43,SSE,157,18.0,-999.0,-999,-99.99,,,-99.99,,2013-03-18 23:22:00,
2013-03-18 23:28:00,29.5,-99.9,28.44,ENE,67,15.0,-999.0,-999,-99.99,,,-99.99,,2013-03-18 23:28:00,
2013-03-18 23:34:00,29.5,-99.9,28.44,ESE,112,17.0,-999.0,-999,-99.99,,,-99.99,,2013-03-18 23:34:00,
2013-03-18 23:41:00,29.5,-99.9,28.44,ENE,67,11.0,-999.0,-999,-99.99,,,-99.99,,2013-03-18 23:41:00,
2013-03-18 23:47:00,29.6,-99.9,28.44,ESE,112,14.0,-999.0,-999,-99.99,,,-99.99,,2013-03-18 23:47:00,
2013-03-18 23:53:00,29.6,-99.9,28.44,East,90,11.0,-999.0,-999,-99.99,,,-99.99,,2013-03-18 23:53:00,
2013-03-18 23:59:00,29.6,-99.9,28.44,ENE,67,11.0,-999.0,-999,-99.99,,,-99.99,,2013-03-18 23:59:00,